User: anonymous   Login
Location: Unspecified
(0.0000°N, 0.0000°E)
Time: 11:46:56
(UTC+00:00)
Language:

CSUNSAT 1 - Orbit

View from above orbital plane
View from above orbital plane
View from above satellite
View from above satellite

Ground track
Ground track

The orbit data is extracted from the following two-line orbital elements,

1 42715U 98067LW  18169.11057870  .00017321  00000-0  15499-3 0  9998
2 42715  51.6363 353.9267 0004135 173.8918 186.2130 15.68460022 61686
Epoch (UTC): 18 June 2018 02:39:14
Eccentricity: 0.0004135
inclination: 51.6363°
perigee height: 360 km
apogee height: 366 km
right ascension of ascending node: 353.9267°
argument of perigee: 173.8918°
revolutions per day: 15.68460022
mean anomaly at epoch: 186.2130°
orbit number at epoch: 6168

The dashed part of the orbit path shows where the satellite is in the earth's shadow,  

DLR